星链-32139 (STARLINK-32139)

导读 | 星芒AI

STARLINK-32139 是 SpaceX Starlink 卫星互联网项目中的一颗低轨卫星,属于 Starlink 群体的组成部分。该卫星由 SpaceX 制造并发射,旨在为全球用户提供高速互联网接入服务。它运行在约 550 公里的近地轨道上,采用先进的通信技术,支持宽带数据传输。Starlink 项目致力于改善偏远地区的网络覆盖,推动全球互联网普及。STARLINK-32139 的部署有助于增强 Starlink 网络的稳定性和容量。

基本信息
目录编号:
61510
目录名称:
STARLINK-32139
国际标识:
2024-183B
轨道中心:
EARTH
卫星名称:
星链-32139
卫星全名:
星链-32139 (STARLINK-32139)
卫星状态:
在轨 (已飞行431 天)
发射日期:
2024-10-15 UTC
国别 :
美国 (US)
星等 :
--
轨道信息
数据来源 国际轨道数据 AOE轨道数据
星历时间 2025-12-20T02:10:29+0800
12小时前
查看轨道信息
2025-12-14T09:00:00+0800
6天前
查看轨道信息
半长轴 6853.382km 6853.34km
偏心率 0.0001157 0.0000732
轨道倾角 53.160° 53.159°
近地点辐角 90.468° 42.987°
升交点赤经 153.789° 180.339°
平近点角 269.646° 134.013°
近地点 474.452km 474.703km
远地点 476.038km 475.707km
周期 94.106分钟 94.105分钟
每日圈数 15.3019 15.302042
详细信息
固有亮度:
5
最大亮度:
2.5
卫星平台:
Starlink V1.0
覆盖范围:
全球
运营商:
太空探索技术公司
运营商所在国:
美国
制造商(研发单位):
太空探索技术公司
制造商所在国:
美国
使用方式:
暂无
卫星简介
Starlink 计划是 SpaceX 推出的全球卫星互联网项目,通过发射低轨道卫星,为全球尤其是偏远地区提供高速、低延迟的互联网服务。自 2019 年起,Starlink 已部署数千颗卫星,旨在缩小全球数字鸿沟,推动互联网普及。该项目还为军事、航空等行业提供通信支持,带来广泛经济效益。
2D轨道图
3D轨道图
轨道高度分析图
轨道倾角分析图
轨道综合分析图
查看轨道综合分析图